Trinidad, Colorado, United States (81082)
Lat: 37.17N, Lon: 104.5W
Wx Zone: COZ088
Local Info
Past Weather Observations for Saturday, April 30, 2016

NOTE: This archive is for the closest National Weather Service station to Trinidad. Information may differ from the station used for current weather conditions.

Click here for Long-term Archive

Time Weather Temperature Dewpoint Humidity Pressure Winds Precip Visibility
23:54
Overcast
34°F / 1°C 28°F / -2°C 81% 30.18 in
(1022 mb)
NW 5.8 mph
(NW 9 kph)
0.00 in
(0.00 mm)
10SM
23:12
Overcast
34°F / 1°C 28°F / -2°C 81% 30.18 in
(1022 mb)
NNW 5.8 mph
(NNW 9 kph)
- 10SM
22:54
Overcast
36°F / 2°C 28°F / -2°C 75% 30.18 in
(1022 mb)
Calm - 10SM
22:22
Overcast
36°F / 2°C 28°F / -2°C 75% 30.18 in
(1022 mb)
Variable 3.5 mph
(Variable 6 kph)
- 10SM
21:54
Overcast
34°F / 1°C 30°F / -1°C 87% 30.18 in
(1022 mb)
Calm - 10SM
21:43
Overcast
34°F / 1°C 30°F / -1°C 87% 30.18 in
(1022 mb)
NE 3.5 mph
(NE 6 kph)
- 10SM
21:35
Overcast
34°F / 1°C 30°F / -1°C 87% 30.18 in
(1022 mb)
NE 4.6 mph
(NE 7 kph)
- 10SM
20:54
Overcast
34°F / 1°C 32°F / 0°C 93% 30.15 in
(1021 mb)
Calm 0.00 in
(0.00 mm)
10SM
19:54
Overcast
34°F / 1°C 30°F / -1°C 87% 30.12 in
(1020 mb)
SSW 6.9 mph
(SSW 11 kph)
0.01 in
(0.25 mm)
9SM
19:45
Overcast
Light Snow
34°F / 1°C 30°F / -1°C 87% 30.12 in
(1020 mb)
SSW 6.9 mph
(SSW 11 kph)
0.01 in
(0.25 mm)
5SM
19:24
Overcast
Light Snow
34°F / 1°C 30°F / -1°C 87% 30.12 in
(1020 mb)
SSW 5.8 mph
(SSW 9 kph)
0.01 in
(0.25 mm)
3SM
19:16
Overcast
Light Snow
34°F / 1°C 30°F / -1°C 87% 30.09 in
(1019 mb)
SW 6.9 mph
(SW 11 kph)
0.01 in
(0.25 mm)
1SM
19:08
Overcast
Light Snow
34°F / 1°C 30°F / -1°C 87% 30.12 in
(1020 mb)
SSW 5.8 mph
(SSW 9 kph)
0.00 in
(0.00 mm)
1 3/4SM
18:54
Overcast
Light Snow
34°F / 1°C 30°F / -1°C 87% 30.09 in
(1019 mb)
SSW 5.8 mph
(SSW 9 kph)
0.04 in
(1.02 mm)
5SM
18:48
Overcast
Light Snow
34°F / 1°C 30°F / -1°C 87% 30.09 in
(1019 mb)
SSW 5.8 mph
(SSW 9 kph)
0.04 in
(1.02 mm)
3SM
18:43
Overcast
Light Snow
34°F / 1°C 30°F / -1°C 87% 30.09 in
(1019 mb)
SSW 3.5 mph
(SSW 6 kph)
0.04 in
(1.02 mm)
1 3/4SM
18:29
Overcast
Snow
34°F / 1°C 30°F / -1°C 87% 30.09 in
(1019 mb)
Calm 0.03 in
(0.76 mm)
1/2SM
18:08
Overcast
Snow
34°F / 1°C 30°F / -1°C 87% 30.06 in
(1018 mb)
NW 5.8 mph
(NW 9 kph)
0.01 in
(0.25 mm)
1/2SM
18:01
Overcast
Light Snow
34°F / 1°C 30°F / -1°C 87% 30.06 in
(1018 mb)
NW 3.5 mph
(NW 6 kph)
0.00 in
(0.00 mm)
3/4SM
17:54
Overcast
Light Snow
34°F / 1°C 30°F / -1°C 87% 30.06 in
(1018 mb)
NW 5.8 mph
(NW 9 kph)
0.01 in
(0.25 mm)
1 1/4SM
17:40
Overcast
Light Snow
34°F / 1°C 30°F / -1°C 87% 30.06 in
(1018 mb)
NW 5.8 mph
(NW 9 kph)
0.00 in
(0.00 mm)
1 3/4SM
17:34
Overcast
Light Snow
34°F / 1°C 30°F / -1°C 87% 30.06 in
(1018 mb)
NW 4.6 mph
(NW 7 kph)
0.00 in
(0.00 mm)
2 1/2SM
15:54
Overcast
37°F / 3°C 28°F / -2°C 70% 30.01 in
(1016 mb)
NNE 13.8 mph
(NNE 22 kph)
- 10SM
15:51
Overcast
37°F / 3°C 28°F / -2°C 70% 30.01 in
(1016 mb)
NNE 10.4 mph
(NNE 17 kph)
- 10SM
15:14
Overcast
37°F / 3°C 30°F / -1°C 75% 29.98 in
(1015 mb)
N 12.7 mph
(N 20 kph)
- 10SM
14:54
Overcast
39°F / 4°C 30°F / -1°C 70% 29.98 in
(1015 mb)
NNE 13.8 mph
(NNE 22 kph)
- 10SM
14:33
Overcast
39°F / 4°C 30°F / -1°C 70% 29.98 in
(1015 mb)
N 12.7 mph
(N 20 kph)
- 10SM
14:05
Overcast
39°F / 4°C 30°F / -1°C 70% 29.98 in
(1015 mb)
NNE 12.7 mph
(NNE 20 kph)
- 10SM
13:54
Overcast
39°F / 4°C 30°F / -1°C 70% 29.98 in
(1015 mb)
N 10.4 mph
(N 17 kph)
- 10SM
13:24
Overcast
39°F / 4°C 30°F / -1°C 70% 29.95 in
(1014 mb)
NE 12.7 mph
(NE 20 kph)
- 10SM
12:54
Overcast
39°F / 4°C 30°F / -1°C 70% 29.95 in
(1014 mb)
NE 10.4 mph
(NE 17 kph)
- 10SM
11:54
Overcast
41°F / 5°C 28°F / -2°C 61% 29.95 in
(1014 mb)
NNE 9.2 mph
(NNE 15 kph)
- 10SM
10:54
Overcast
41°F / 5°C 27°F / -3°C 57% 29.95 in
(1014 mb)
N 9.2 mph
(N 15 kph)
- 10SM
09:54
Overcast
39°F / 4°C 28°F / -2°C 65% 29.92 in
(1013 mb)
Calm - 10SM
08:54
Overcast
36°F / 2°C 30°F / -1°C 81% 29.92 in
(1013 mb)
SSW 5.8 mph
(SSW 9 kph)
- 10SM
07:54
Overcast
34°F / 1°C 30°F / -1°C 87% 29.89 in
(1012 mb)
SSW 8.1 mph
(SSW 13 kph)
- 10SM
06:54
Overcast
30°F / -1°C 28°F / -2°C 93% 29.89 in
(1012 mb)
W 8.1 mph
(W 13 kph)
- 10SM
05:54
Overcast
28°F / -2°C 27°F / -3°C 93% 29.86 in
(1011 mb)
SSW 8.1 mph
(SSW 13 kph)
- 10SM
05:46
Overcast
28°F / -2°C 27°F / -3°C 93% 29.86 in
(1011 mb)
SSW 5.8 mph
(SSW 9 kph)
- 10SM
04:54
Overcast
27°F / -3°C 25°F / -4°C 93% 29.86 in
(1011 mb)
WNW 4.6 mph
(WNW 7 kph)
- 10SM
03:54
Mostly Cloudy
25°F / -4°C 25°F / -4°C 100% 29.83 in
(1010 mb)
W 3.5 mph
(W 6 kph)
- 10SM
03:47
Mostly Cloudy
25°F / -4°C 23°F / -5°C 93% 29.83 in
(1010 mb)
WNW 4.6 mph
(WNW 7 kph)
- 10SM
03:26
Clear
Fog And Mist
25°F / -4°C 21°F / -6°C 86% 29.83 in
(1010 mb)
W 4.6 mph
(W 7 kph)
- 3SM
03:23
Partly Cloudy
Fog And Mist
25°F / -4°C 21°F / -6°C 86% 29.83 in
(1010 mb)
W 4.6 mph
(W 7 kph)
- 1 1/2SM
03:15
Partly Cloudy
Fog And Mist
25°F / -4°C 21°F / -6°C 86% 29.83 in
(1010 mb)
NW 4.6 mph
(NW 7 kph)
- 2 1/2SM
02:54
Clear
25°F / -4°C 23°F / -5°C 93% 29.83 in
(1010 mb)
SSW 6.9 mph
(SSW 11 kph)
- 10SM
02:35
Partly Cloudy
25°F / -4°C 23°F / -5°C 93% 29.83 in
(1010 mb)
SSW 5.8 mph
(SSW 9 kph)
- 8SM
02:28
Mostly Cloudy
Fog And Mist
25°F / -4°C 23°F / -5°C 93% 29.83 in
(1010 mb)
SSW 6.9 mph
(SSW 11 kph)
- 4SM
02:24
Obscured
Fog And Mist
25°F / -4°C 23°F / -5°C 93% 29.83 in
(1010 mb)
SSW 6.9 mph
(SSW 11 kph)
- 1SM
02:06
Obscured
Fog
27°F / -3°C 25°F / -4°C 93% 29.83 in
(1010 mb)
W 4.6 mph
(W 7 kph)
- 1/4SM
01:54
Overcast
Fog And Mist
27°F / -3°C 25°F / -4°C 93% 29.83 in
(1010 mb)
WNW 5.8 mph
(WNW 9 kph)
- 1 1/4SM
01:31
Overcast
Fog
27°F / -3°C 25°F / -4°C 93% 29.83 in
(1010 mb)
NW 4.6 mph
(NW 7 kph)
- 1/2SM
01:17
Mostly Cloudy
Fog
27°F / -3°C 25°F / -4°C 93% 29.83 in
(1010 mb)
NW 5.8 mph
(NW 9 kph)
- 1/2SM
01:07
Partly Cloudy
Fog And Mist
27°F / -3°C 25°F / -4°C 93% 29.83 in
(1010 mb)
NNW 5.8 mph
(NNW 9 kph)
- 1 3/4SM
00:54
Partly Cloudy
28°F / -2°C 27°F / -3°C 93% 29.86 in
(1011 mb)
WNW 4.6 mph
(WNW 7 kph)
- 10SM
00:27
Clear
27°F / -3°C 27°F / -3°C 100% 29.86 in
(1011 mb)
SSW 5.8 mph
(SSW 9 kph)
- 10SM
00:19
Clear
Fog And Mist
28°F / -2°C 27°F / -3°C 93% 29.86 in
(1011 mb)
SSW 6.9 mph
(SSW 11 kph)
- 2SM
00:09
Clear
Fog And Mist
28°F / -2°C 27°F / -3°C 93% 29.86 in
(1011 mb)
SSW 6.9 mph
(SSW 11 kph)
- 3/4SM
Time Weather Temperature Dewpoint Humidity Pressure Winds Precip Visibility


Weather for websites

WeatherForYou.com, LLC is not responsible for any damages or problems caused by this service. Current weather conditions are obtained from the closest station including government and personal stations which may have varying degrees of accuracy. Weather forecasts are derived from the NOAA NDFD. Like all things, this site belongs to Jesus Christ... He just trusts us to maintain it. If you have any questions or comments email webmaster@weatherforyou.com

Copyright © 2016, WeatherForYou.com LLC. All rights reserved.